RH
43 61 68 46 35 41 41 41 42 29 30 27 30 23 16 17 21 17 20 24 32 40 42 48 60 68 74 77 72 51 42 48 49 59 79 62 55 33 29 28 28 27 26 25
43 58 47 27 27 35 24 43 30 26 29 25 21 21 16 13 21 19 18 21 31 39 42 51 63 71 74 73 73 76 54 47 64 83 80 73 56 45 29 29 30 28 27 26
44 32 38 27 25 25 15 35 26 27 30 27 24 22 20 14 15 20 18 20 28 37 44 52 62 69 72 72 77 66 47 46 57 75 53 53 36 31 30 31 31 29 28 28
36 26 34 28 27 23 24 15 22 29 27 21 22 13 8 14 17 18 20 21 26 35 42 50 57 64 69 73 78 66 43 40 39 40 40 37 40 43 34 33 32 31 30 30
40 32 31 30 28 22 27 19 22 33 26 19 25 23 11 14 21 21 20 22 27 35 40 48 54 60 68 79 58 47 44 40 35 36 37 37 40 34 34 34 34 33 33 34
31 29 27 27 22 21 26 26 26 27 24 34 15 17 10 18 17 18 19 24 29 37 41 49 55 64 74 71 52 50 45 37 36 36 34 33 34 35 36 37 42 38 38 37
29 28 26 30 32 27 21 26 47 47 62 37 20 13 12 15 17 13 20 23 31 40 44 53 60 69 85 64 54 53 45 39 37 35 35 36 38 39 39 39 38 37 38 39
42 42 32 28 26 34 25 24 52 49 41 28 30 26 14 15 23 29 30 25 33 43 50 56 64 76 82 60 58 59 50 42 40 38 39 40 41 41 41 40 41 41 37 36
29 28 26 27 29 25 30 36 19 32 36 29 28 18 22 26 27 30 32 31 37 44 52 60 71 76 81 69 66 63 57 45 43 41 42 44 44 44 46 46 44 39 36 28
18 29 34 37 35 36 30 20 34 44 65 24 17 18 17 30 29 31 35 36 43 48 54 62 70 77 78 75 70 69 62 48 45 46 49 48 48 51 47 44 39 27 14 10
20 26 44 40 39 31 40 35 29 30 18 27 23 19 20 18 24 31 36 39 44 50 56 66 71 73 72 74 72 67 63 53 50 52 53 54 52 46 44 27 13 10 11 14
21 23 52 40 37 33 26 22 23 32 31 24 36 37 24 21 22 29 33 39 46 53 62 66 67 69 72 74 75 65 57 55 56 57 56 49 46 34 14 9 11 10 9 10
23 38 57 47 45 40 43 34 27 33 52 32 24 20 27 28 27 31 36 42 51 58 63 64 66 69 69 68 64 58 58 58 58 52 47 39 19 9 10 9 8 8 11 15
26 27 29 30 26 37 44 36 34 33 80 27 24 22 35 34 34 34 41 48 54 62 62 62 62 59 57 55 54 55 57 52 47 41 24 11 9 9 7 8 10 12 14 16
29 76 24 20 29 31 31 35 37 50 39 46 22 19 18 30 33 35 44 51 58 59 56 55 51 48 46 44 42 40 42 41 28 13 10 9 7 8 10 12 12 13 15 16
32 77 60 62 42 34 39 30 34 36 34 26 24 22 18 24 32 38 46 53 54 52 50 48 44 42 40 39 36 37 31 17 11 11 9 9 10 12 13 13 16 17 18 24
41 65 71 43 45 51 64 40 33 36 31 28 31 20 26 30 36 40 47 52 49 47 46 43 41 39 36 35 34 28 22 12 9 9 10 12 15 16 18 18 19 24 35 48
36 52 59 70 52 58 28 40 27 30 31 27 24 28 31 33 39 45 50 50 46 46 43 41 38 36 35 29 14 11 8 9 10 10 12 17 20 22 20 24 32 43 56 58
28 38 66 65 49 28 37 43 41 35 36 26 25 32 34 40 49 52 53 49 46 44 40 37 32 30 20 12 9 9 11 16 15 22 25 22 20 22 27 37 48 55 61 63
42 33 44 55 52 35 26 36 37 32 32 32 30 43 50 48 47 53 56 48 43 39 32 30 25 19 18 12 10 10 15 18 25 23 16 18 23 31 45 55 58 61 69 75
60 51 55 46 47 29 38 38 39 38 34 36 38 45 47 41 36 53 47 40 34 31 30 20 18 21 15 10 11 13 16 19 18 17 19 25 37 53 64 70 70 77 86 88
56 56 52 40 58 54 39 42 36 47 48 46 45 47 46 48 46 41 34 33 32 24 16 14 14 13 12 12 14 15 17 20 21 25 33 47 62 71 74 78 85 93 93 91
66 51 44 41 43 45 44 43 49 49 52 49 50 46 45 39 36 36 36 34 25 16 14 14 13 14 15 15 16 18 24 25 32 43 59 74 75 76 80 90 94 95 93 91
59 51 56 51 48 44 48 48 47 46 50 50 47 42 38 36 34 33 33 26 20 16 14 14 15 17 20 22 22 26 29 41 55 70 76 76 78 83 91 93 94 93 92 92
72 55 58 62 46 46 46 43 43 45 44 41 37 35 35 32 32 26 26 22 17 16 16 16 18 19 21 21 26 38 51 64 70 76 77 81 84 90 94 94 94 95 96 98
85 72 63 61 42 46 42 39 36 35 36 35 34 31 26 18 23 19 21 18 18 19 20 20 20 21 23 30 48 58 68 70 69 76 86 89 96 98 97 93 93 94 97 100
Wind_Speed
22 10 17 24 21 20 20 14 16 14 13 9 16 18 19 13 16 20 24 25 24 23 20 19 19 17 16 16 16 16 16 16 14 13 11 9 9 8 5 2 4 6 8 8
15 18 26 22 21 22 13 18 12 5 11 9 9 21 19 15 20 24 26 27 26 24 24 22 21 19 18 17 16 15 16 16 14 11 10 10 11 9 4 0 4 6 8 9
21 22 26 22 18 14 12 16 11 1 7 5 6 14 19 20 23 24 26 27 27 29 27 25 24 21 19 18 17 16 16 16 16 15 16 15 12 8 4 2 5 7 8 9
17 23 23 15 18 19 16 7 7 11 10 7 15 8 21 22 22 21 29 30 30 30 27 26 25 23 21 18 17 17 17 17 17 16 15 13 9 8 6 4 5 6 7 9
14 20 15 18 21 19 10 8 9 11 11 4 10 6 12 15 18 21 25 31 31 31 30 29 26 23 20 20 20 18 18 18 17 17 16 15 12 9 5 4 4 5 8 9
19 4 12 18 15 12 13 9 6 4 5 7 17 14 13 10 20 20 24 29 31 31 30 28 25 23 22 21 21 20 19 18 18 18 16 14 11 7 5 2 2 5 7 11
19 11 3 5 9 7 15 16 4 5 4 9 4 13 13 6 4 7 20 28 31 31 31 30 29 27 23 23 23 20 20 19 19 17 15 12 9 7 4 3 5 8 10 13
17 12 15 14 14 11 22 17 6 8 8 9 4 9 6 4 12 7 5 27 29 31 31 31 30 27 24 24 22 20 19 19 18 16 13 11 9 7 6 7 9 11 14 17
18 17 15 11 6 10 17 13 11 1 1 3 7 10 5 7 9 10 14 24 28 31 31 30 27 24 22 22 22 19 19 19 17 15 12 10 9 7 7 9 12 15 17 20
13 12 12 5 5 6 8 11 7 4 6 7 8 10 5 14 15 14 15 24 28 29 29 28 26 23 21 20 20 19 18 18 16 14 12 10 8 8 10 12 15 18 20 23
10 5 7 7 15 17 6 7 7 4 8 7 9 5 2 7 16 18 17 24 28 30 29 27 24 22 21 21 21 19 18 18 16 13 11 10 9 10 13 16 18 19 22 24
24 4 7 14 3 4 16 15 17 8 9 7 4 2 1 2 13 18 22 25 27 28 27 26 24 23 21 20 20 19 18 16 14 13 11 10 11 13 15 17 20 22 24 24
19 11 7 5 1 3 8 15 16 5 5 12 8 4 4 7 10 18 24 26 27 27 26 25 23 22 21 19 19 18 16 15 14 11 9 11 12 15 18 20 22 23 25 26
19 10 19 16 12 14 13 19 17 12 4 11 13 6 11 12 15 18 23 26 28 27 26 25 23 21 20 18 17 16 15 13 12 9 10 12 15 17 19 21 23 24 26 28
15 7 18 19 1 11 11 22 23 19 22 11 17 15 11 16 16 20 25 26 27 27 25 24 23 21 19 18 15 13 11 10 9 9 11 13 16 18 20 22 24 27 29 30
9 1 2 2 3 7 5 16 23 25 20 18 5 9 2 19 21 24 27 28 27 26 25 23 21 20 18 16 14 12 9 8 9 9 11 13 16 19 21 24 26 29 31 31
13 7 4 9 7 5 4 19 19 21 20 21 17 7 11 14 16 24 28 28 27 26 25 23 21 19 17 14 12 9 8 8 8 9 12 15 17 20 22 25 28 29 30 29
15 11 4 4 8 7 5 4 16 19 17 18 10 12 16 17 17 19 21 25 25 25 24 22 20 18 15 12 10 8 6 6 9 11 14 16 18 21 25 27 28 28 27 29
13 13 5 6 9 1 3 5 8 15 10 16 16 13 17 23 25 16 18 21 24 24 22 20 17 15 13 9 7 4 4 6 9 11 14 17 22 24 26 27 27 27 28 29
6 14 7 5 6 10 6 8 5 8 7 15 16 18 22 26 9 8 21 24 25 23 21 19 17 13 9 6 3 3 5 8 10 14 20 23 24 26 25 25 27 27 27 28
6 7 11 8 6 2 3 8 8 8 3 16 23 25 26 11 5 32 29 28 25 23 21 18 14 10 6 1 3 5 8 11 15 20 22 24 24 23 22 23 25 25 25 25
8 9 8 9 5 6 9 5 4 4 11 16 21 24 23 33 38 36 31 29 25 23 18 14 10 6 2 2 5 8 11 15 18 21 22 22 20 20 21 23 24 22 23 24
4 1 6 3 3 5 5 6 8 5 18 21 27 31 38 37 35 33 30 24 21 18 15 11 8 4 1 5 8 11 13 17 20 20 19 18 18 18 18 19 20 22 21 22
2 3 4 6 4 7 10 12 15 15 22 26 32 36 38 38 33 29 26 23 19 15 13 9 6 2 2 6 10 13 16 17 18 18 17 17 17 16 16 17 18 20 22 26
3 3 6 6 8 13 12 14 23 28 30 34 32 33 34 36 30 29 24 20 17 13 9 5 3 3 6 10 13 14 15 16 17 17 16 16 14 16 17 17 18 20 22 24
6 3 0 3 14 14 18 21 28 35 34 33 36 34 30 30 27 24 21 17 14 10 6 3 4 7 11 13 13 14 14 16 17 17 14 14 15 16 18 20 21 21 25 20
Wind_Direction
200 177 211 211 208 224 211 210 186 190 158 168 220 240 238 203 210 210 197 191 190 189 183 179 175 172 173 172 174 177 179 178 178 174 165 165 169 164 149 93 31 15 12 11
185 202 218 217 216 225 253 197 190 118 145 193 221 243 239 223 209 209 200 194 190 187 182 181 178 178 180 176 177 178 182 185 180 174 169 176 173 175 178 238 358 356 356 357
203 214 213 225 210 215 230 202 194 189 116 221 289 261 243 227 211 210 210 200 193 191 184 183 182 182 179 179 179 181 187 187 190 186 192 188 184 186 208 287 333 342 344 346
225 226 205 214 212 210 214 224 158 133 139 230 184 260 229 209 205 207 205 200 193 192 189 185 183 182 183 180 180 186 192 194 196 195 192 190 187 191 217 277 316 330 338 341
202 227 205 216 217 205 221 158 178 173 203 278 196 251 243 191 208 207 204 199 191 190 188 184 183 182 180 180 187 190 193 194 192 189 189 189 189 207 234 270 305 329 336 336
217 325 223 234 223 223 136 121 133 184 224 242 235 215 240 188 215 213 200 195 187 184 183 182 180 177 177 186 186 190 192 189 189 189 187 192 203 221 237 261 315 326 322 321
213 219 163 206 174 172 178 161 152 184 192 239 226 217 241 109 156 214 186 189 182 180 178 176 175 175 179 182 186 187 187 186 186 186 189 197 209 216 229 274 299 308 311 312
196 208 192 199 208 191 199 187 182 201 200 212 152 224 227 83 132 135 201 178 176 176 177 175 176 176 178 182 184 182 183 185 186 189 195 206 217 232 259 279 295 304 308 308
193 216 152 191 194 196 199 217 242 248 293 251 189 239 157 154 162 156 170 170 175 177 176 175 175 174 175 178 180 177 183 185 189 197 205 216 227 243 271 292 301 302 306 308
195 194 199 157 188 239 219 178 182 234 191 229 199 226 224 193 178 165 164 172 174 174 173 172 171 169 168 172 174 176 181 188 194 199 207 220 241 263 281 294 300 303 308 308
240 182 158 159 209 188 165 192 218 237 245 242 243 214 6 184 178 169 167 170 170 168 168 166 165 163 163 168 174 176 179 187 194 203 217 234 253 275 290 297 303 307 307 310
211 184 168 198 70 298 236 214 204 209 193 233 338 243 69 77 151 163 162 161 162 163 162 162 161 160 162 165 171 177 182 188 197 209 224 246 271 285 295 303 304 306 308 309
188 198 141 167 202 217 219 217 231 204 337 207 205 213 122 126 144 158 155 158 158 158 158 158 159 161 161 162 169 177 182 193 204 215 237 264 282 294 301 304 307 310 311 312
173 225 214 208 204 146 201 210 208 194 198 199 224 166 182 172 164 160 157 158 157 157 159 160 160 159 159 160 163 170 182 194 208 232 259 279 290 299 305 308 311 314 312 310
182 236 215 237 181 178 191 193 190 201 220 203 228 230 187 181 171 166 161 158 158 160 160 160 158 157 155 154 155 160 175 200 230 258 276 290 299 307 309 312 313 312 311 309
200 238 174 149 165 203 212 204 201 212 217 233 217 233 359 154 156 161 164 162 162 161 159 158 155 154 153 154 154 168 188 220 251 275 293 301 308 309 311 312 312 311 310 308
176 140 162 216 159 132 279 215 201 214 217 214 215 186 150 150 164 168 164 167 164 161 158 155 154 153 152 153 163 170 205 244 273 290 301 306 306 308 310 311 311 310 309 307
186 174 169 129 157 202 242 354 202 203 213 212 214 154 169 163 156 155 162 162 159 157 153 152 152 150 152 164 181 207 239 271 290 303 306 306 308 309 311 311 309 308 306 304
206 181 150 159 211 13 165 183 173 182 219 210 191 145 129 132 126 129 156 158 154 151 149 148 146 147 155 169 196 226 276 295 306 307 304 307 309 309 310 308 307 306 306 304
229 220 195 172 203 224 91 139 158 175 237 182 165 155 145 148 157 156 152 147 144 144 144 143 147 146 150 173 215 292 306 304 305 302 309 310 310 309 307 306 306 307 302 299
172 186 201 186 213 188 76 144 154 174 153 165 156 156 157 169 110 142 141 138 139 139 140 142 138 139 157 198 305 310 306 309 306 309 310 311 309 307 306 304 303 302 302 303
159 168 188 200 188 222 148 109 210 91 111 134 140 148 123 116 121 130 133 133 136 136 136 136 134 138 142 305 313 315 314 309 309 310 309 307 307 304 301 301 304 304 303 305
168 151 151 175 152 105 40 71 98 115 130 132 128 127 126 123 126 128 128 128 129 133 133 132 132 129 33 322 320 317 311 308 310 308 308 305 303 302 301 300 302 306 310 311
83 32 87 152 67 94 86 92 106 111 120 123 129 128 127 123 123 122 125 127 128 130 132 131 125 100 349 322 317 313 310 310 307 307 306 304 303 302 304 303 306 313 312 310
20 83 114 89 112 96 79 107 116 111 113 114 116 120 121 123 123 129 128 129 131 131 128 122 85 356 328 317 313 312 312 309 308 306 307 305 304 305 307 310 308 306 309 310
354 60 244 128 149 84 120 122 119 114 112 112 113 115 122 130 127 130 127 128 129 126 109 59 354 330 319 313 311 312 309 309 308 309 308 306 307 306 310 310 313 305 309 310